Starlink 31900

operational
NORAD ID: 59942 Int'l Des: 2024-106 Owner: SPXS Country: US Constellation: starlink
LEOCIRCULAR

关于 Starlink 31900

正在加载描述...

实时位置

正在加载3D地球...

即将过境

高度历史

Altitude vs Time

uPlot chart will show altitude changes over time

两行轨道根数

1 59942U 24106W 25302.83238988 -.00002711 00000-0 -89020-4 0 9999
2 59942 43.0009 351.2141 0000803 291.2598 68.8168 15.27584792 80512
Epoch: Oct 29, 2025 • Age: 31 hours

当前状态

高度 493.0 km
速度 7.62 km/s
星下点 -36.26°S, 153.79°W
发射日期 Jun 1, 2024
运行时间 1.4 years
类型 internet

技术详情

分类 Payload
质量 730.00 kg
干质量 700.00 kg
总质量 730.00 kg
长度 0.30 m
直径 4.10 m
跨度 29.00 m
形状 Box + pan
制造商 SPXS
平台类型 Starlink V2M
阶段状态 In Orbit
所有者/国家 SPXS/US

大型星座

Loading constellations...